{"data":{"norad_id":63080,"epoch":"2026-09-21T21:32:29.053536Z","epoch_age_seconds":41513,"freshness":"FRESH","line1":"1 63080U 25037D   26264.89755849  .00014125  00000+0  49476-3 0  9994","line2":"2 63080  70.0027 217.2883 0001991 286.2829  73.8127 15.29590394 88059","mean_motion":15.29590394,"eccentricity":0.0001991,"inclination_deg":70.0027,"raan_deg":217.2883,"arg_perigee_deg":286.2829,"mean_anomaly_deg":73.8127,"bstar":0.00049476,"rev_number":8805,"period_min":94.142850638221,"perigee_km":475.67098262542,"apogee_km":478.40071245331,"semimajor_km":6855.1728475394,"source":"CELESTRAK","updated_at":"2026-09-22T09:00:49.757405Z"}}